Flag for Saudi Arabia Weather past 2 weeks in Makkah, Saudi Arabia

Now
91 °F

Sunny.


Feels Like: 92 °F
Forecast: 73 / 93 °F
Wind: 7 mph from Southwest

Location: Mecca Airport

Current Time: Mar 2, 2015 at 6:15:48 PM

Latest Report: Mar 2, 2015 at 5:00 PM


Visibility: 5 mi

Pressure: 29.86 "Hg

Humidity: 38%

Dew point: 63 °F

Location of MakkahLocation

Historic Weather in Makkah — Graph

°F

Makkah temperature yesterday

Maximum temperature yesterday: 100 °F (at 3:00 PM)
Minimum temperature yesterday: 75 °F (at 6:00 AM)
Average temperature yesterday: 86 °F

Past Weeks' High & Low Weather Summary

 TemperatureHumidityPressure
High100 °F (Feb 28, 3:00 PM)89% (Feb 18, 5:00 AM)30.01 "Hg (Feb 18, 5:00 AM)
Low61 °F (Feb 21, 7:00 AM)23% (Feb 22, 7:00 PM)29.77 "Hg (Feb 19, 3:00 PM)
Average80 °F56%29.88 "Hg
* Reported Feb 15 5:00 PM — Mar 2 5:00 PM, Makkah, Weather by CustomWeather, © 2015

Note: Actual official high and low records may vary slightly from our data, if they occured in-between our weather recording intervals... More about our weather records

Advertising

Makkah weather history for previous 24 hours

 ConditionsComfort  
Time TempWeatherWind HumidityBarometerVisibility
5:00 PM
Mon, Mar 2
91 °FSunny.7 mph38%29.86 "Hg5 mi
4:00 PM93 °FSunny.5 mph39%29.83 "Hg5 mi
3:00 PM93 °FSunny.5 mph39%29.83 "Hg5 mi
2:00 PM91 °FSunny.5 mph46%29.86 "Hg5 mi
1:00 PM90 °FSunny.6 mph49%29.89 "Hg10 mi
12:00 PM88 °FSunny.6 mph52%29.92 "Hg10 mi
10:00 AM82 °FSunny.3 mph55%29.92 "Hg10 mi
9:00 AM75 °FSunny.3 mph69%29.89 "Hg10 mi
8:00 AM73 °FSunny.No wind74%29.86 "Hg10 mi
7:00 AM73 °FSunny.No wind78%29.83 "Hg10 mi
6:00 AM73 °FClear.2 mph78%29.80 "Hg10 mi
5:00 AM75 °FClear.2 mph69%29.80 "Hg10 mi
4:00 AM75 °FClear.No wind74%29.80 "Hg10 mi
3:00 AM77 °FClear.No wind69%29.80 "Hg10 mi
2:00 AM79 °FClear.No wind70%29.83 "Hg10 mi
1:00 AM79 °FClear.No wind65%29.83 "Hg10 mi
12:00 AM81 °FClear.No wind62%29.83 "Hg10 mi
11:00 PM
Sun, Mar 1
81 °FClear.No wind66%29.86 "Hg10 mi
10:00 PM82 °FClear.No wind58%29.86 "Hg10 mi
9:00 PM84 °FClear.2 mph55%29.86 "Hg10 mi
8:00 PM86 °FClear.No wind49%29.83 "Hg10 mi
7:00 PM90 °FClear.No wind38%29.80 "Hg10 mi
6:00 PM93 °FSunny.2 mph34%29.80 "Hg10 mi
Weather by CustomWeather, © 2015

See weather overviewHow to use our weather pages